This is the latest recevied weather packets stored in our database for station/object DC0VZ-6. If no packets are shown the sender has not sent any weather packets the latest 10 day(s).
| Time | Temp. | Humidity | Pressure | Rain* | Wind** | Luminosity | Snow |
|---|---|---|---|---|---|---|---|
| 1777624573 | 18.89° C | 5% | 993.8 hPa | 0 mm | - | - | - |
| 1777623973 | 18.33° C | 5% | 993.8 hPa | 0 mm | - | - | - |
| 1777623373 | 17.78° C | 5% | 993.8 hPa | 0 mm | - | - | - |
| 1777622773 | 16.67° C | 12% | 993.8 hPa | 0 mm | - | - | - |
| 1777622173 | 16.11° C | 12% | 993.8 hPa | 0 mm | - | - | - |
| 1777621573 | 15.56° C | 12% | 993.8 hPa | 0 mm | - | - | - |
| 1777620973 | 14.44° C | 12% | 993.5 hPa | 0 mm | - | - | - |
| 1777620372 | 13.89° C | 5% | 993.5 hPa | 0 mm | - | - | - |
| 1777619772 | 13.33° C | 5% | 993.4 hPa | 0 mm | - | - | - |
| 1777619172 | 12.78° C | 5% | 993.4 hPa | 0 mm | - | - | - |
| 1777618572 | 12.22° C | 5% | 993.4 hPa | 0 mm | - | - | - |
| 1777617972 | 11.67° C | 5% | 993.4 hPa | 0 mm | - | - | - |
| 1777617372 | 11.11° C | 5% | 993.2 hPa | 0 mm | - | - | - |
| 1777616772 | 10.56° C | 5% | 993.2 hPa | 0 mm | - | - | - |
| 1777616172 | 10.56° C | 5% | 993.2 hPa | 0 mm | - | - | - |
| 1777615572 | 10° C | 7% | 993.2 hPa | 0 mm | - | - | - |
| 1777614972 | 8.89° C | 8% | 993 hPa | 0 mm | - | - | - |
| 1777614372 | 8.89° C | 8% | 993 hPa | 0 mm | - | - | - |
| 1777613771 | 8.33° C | 8% | 992.8 hPa | 0 mm | - | - | - |
| 1777613171 | 7.78° C | 8% | 992.8 hPa | 0 mm | - | - | - |
| 1777612571 | 7.22° C | 8% | 992.7 hPa | 0 mm | - | - | - |
| 1777611371 | 6.67° C | 9% | 992.7 hPa | 0 mm | - | - | - |
| 1777610771 | 6.67° C | 9% | 992.7 hPa | 0 mm | - | - | - |
| 1777610171 | 5.56° C | 10% | 992.7 hPa | 0 mm | - | - | - |
| 1777609571 | 5° C | 10% | 992.7 hPa | 0 mm | - | - | - |
* Rain latest hour (hover to see other rain measurements)
** Current wind speed in m/s (hover to see current wind gust speed)